Regional Weather Roundup
Issued by NWS

Home | Current Version | Previous Version | Text Only | Print | Product List | Glossary On
Versions: 1 2 3 4 5 6 7 8 9 10 11 12 13 14 15 16 17 18 19 20 21 22 23 24 25 26 27 28 29 30 31 32 33 34 35 36 37 38 39 40 41 42 43 44 45 46 47 48 49 50
000
ASUS44 KJAN 301710
RWRMS

MISSISSIPPI HOURLY WEATHER ROUNDUP
NATIONAL WEATHER SERVICE JACKSON MS
1200 PM CDT MON MAY 30 2016

NOTE: "FAIR: INDICATES FEW OR NO CLOUDS BELOW 12,000 FEET WITH NO
SIGNIFICANT WEATHER AND/OR OBSTRUCTIONS TO VISIBILITY.

MSZ001>002-007>008-010>013-018>021-025>028-034>036-301800-
NORTHWEST MISSISSIPPI

CITY           SKY/WX    TMP DP  RH WIND       PRES   REMARKS
BATESVILLE     FAIR      86  64  47 E3        30.05F
CLARKSDALE     SUNNY     84  70  61 NE3       30.04F
CLEVELAND      FAIR      84  70  62 CALM      30.04S
GREENWOOD      SUNNY     89  67  47 MISG      30.03F HX  92
GREENVILLE     SUNNY     87  65  47 VRB3      30.03F
OLIVE BRANCH   MOSUNNY   84  64  51 VRB5      30.06S
OXFORD         FAIR      84  64  51 NE5       30.06F
TUNICA         SUNNY     84  64  51 E3        30.05F
WINONA         FAIR      86  64  46 N5        30.04F
$$

MSZ003>006-009-014>017-022>024-029>033-037>039-301800-
NORTHEAST MISSISSIPPI

CITY           SKY/WX    TMP DP  RH WIND       PRES   REMARKS
COLUMBUS AFB   SUNNY     88  68  51 NW5       30.02F HX  91
CORINTH        FAIR      84  63  48 CALM      30.04S
GOLDN TRIANGLE SUNNY     91  66  43 W5        30.03F HX  94
STARKVILLE     FAIR      88  63  42 NW3       30.03F
TUPELO         PTSUNNY   88  64  44 NE7       30.03F
$$

MSZ040-058-301800-
CENTRAL MISSISSIPPI

CITY           SKY/WX    TMP DP  RH WIND       PRES   REMARKS
JACKSON INTL   MOSUNNY   89  66  46 S6        30.03F HX  91
JACKSON HAWKNS SUNNY     89  64  43 VRB3      30.04F HX  90
MADISON        FAIR      86  68  54 NE5       30.03F
MERIDIAN KEY   MOSUNNY   93  65  39 NE9       30.03F HX  95
MERIDIAN NAS   MOSUNNY   91  63  39 VRB7      30.03F HX  92
VICKSBURG TVR  SUNNY     89  67  47 NE5       30.04S HX  92
VICKSBURG VKS  MOSUNNY   88  70  55 CALM      30.03F HX  92
$$

MSZ059>079-301800-
SOUTH MISSISSIPPI

CITY           SKY/WX    TMP DP  RH WIND       PRES   REMARKS
BROOKHAVEN     FAIR     N/A N/A N/A CALM      30.05F
COLUMBIA       FAIR      88  68  51 CALM      30.06F HX  91
HATTIESBURG    MOSUNNY   90  67  46 NE7       30.03F HX  93
MCCOMB         SUNNY     90  61  37 CALM      30.03F HX  90
NATCHEZ        SUNNY     86  70  58 E5        30.03F HX  90
PINE BELT      MOSUNNY   90  66  45 SE6       30.05F HX  92
$$

MSZ080>082-301800-
COASTAL MISSISSIPPI

CITY           SKY/WX    TMP DP  RH WIND       PRES   REMARKS
BAY ST LOUIS   MOSUNNY   90  63  40 S6        30.01F HX  90
BILOXI         SUNNY     90  69  49 S7        30.01F HX  94
PASCAGOULA     MOSUNNY   90  70  51 VRB3      30.01F HX  95
GULFPORT       MOSUNNY   88  67  49 S7        30.01F HX  91
$$



USA.gov is the U.S. government's official web portal to all federal, state and local government web resources and services.